GW2644 Weather Reports


Display with metric or nautical units.
time (UTC)temp
F
wind
direction
speed
MPH
gust
MPH
rain 1hr
in
rain 24hr
in
rain mn
in
humidity
%
barometer
mb
20260902171715 72 212 2.0 2.0 0.00 0.00 0.00 65 1020.4
20260902171210 73 168 0.0 1.0 0.00 0.00 0.00 67 1020.3
20260902170707 73 213 2.0 3.0 0.00 0.00 0.00 68 1020.3
20260902170202 71 195 0.0 1.0 0.00 0.00 0.00 68 1020.5
20260902165656 70 263 0.0 2.0 0.00 0.00 0.00 70 1020.2
20260902165150 70 263 0.0 2.0 0.00 0.00 0.00 69 1020.4
20260902164646 70 270 0.0 2.0 0.00 0.00 0.00 70 1020.3
20260902164145 72 106 0.0 2.0 0.00 0.00 0.00 71 1020.4
20260902163640 72 203 0.0 1.0 0.00 0.00 0.00 70 1020.5
20260902163139 70 195 0.0 3.0 0.00 0.00 0.00 73 1020.5
20260902162638 70 206 0.0 2.0 0.00 0.00 0.00 73 1020.4
20260902162133 72 90 0.0 3.0 0.00 0.00 0.00 73 1020.1
20260902161628 71 8 0.0 2.0 0.00 0.00 0.00 74 1020.5
20260902161124 70 105 0.0 1.0 0.00 0.00 0.00 77 1020.3
20260902160620 69 240 0.0 3.0 0.00 0.00 0.00 79 1020.2
20260902160115 69 0 0.0 0.0 0.00 0.00 0.00 79 1020.5
20260902155613 68 120 0.0 0.0 0.00 0.00 0.00 81 1020.3
20260902155112 70 111 0.0 1.0 0.00 0.00 0.00 82 1020.3
20260902154607 69 172 0.0 0.0 0.00 0.00 0.00 83 1020.2
20260902154102 69 353 0.0 1.0 0.00 0.00 0.00 83 1020.3
20260902153601 68 126 0.0 1.0 0.00 0.00 0.00 83 1020.4
20260902153056 68 12 0.0 1.0 0.00 0.00 0.00 84 1020.3
20260902152553 68 249 0.0 2.0 0.00 0.00 0.00 84 1020.3
20260902152048 68 270 0.0 0.0 0.00 0.00 0.00 86 1020.4
20260902151544 68 270 0.0 0.0 0.00 0.00 0.00 85 1020.2
20260902151043 67 261 0.0 0.0 0.00 0.00 0.00 86 1020.3
20260902150538 66 261 0.0 2.0 0.00 0.00 0.00 86 1020.3
20260902150033 66 270 0.0 0.0 0.00 0.00 0.00 87 1020.3
20260902145523 65 254 0.0 1.0 0.00 0.00 0.00 88 1020.1
20260902145022 64 209 0.0 0.0 0.00 0.00 0.00 90 1020.2
20260902144514 64 209 0.0 1.0 0.00 0.00 0.00 91 1020.2
20260902144014 64 254 0.0 0.0 0.00 0.00 0.00 92 1020.4
20260902143509 63 254 0.0 1.0 0.00 0.00 0.00 93 1020.2
20260902143004 63 270 0.0 0.0 0.00 0.00 0.00 94 1020.1
20260902142500 63 254 0.0 0.0 0.00 0.00 0.00 95 1019.8
20260902141955 62 254 0.0 0.0 0.00 0.00 0.00 95 1019.9
20260902141449 61 254 0.0 0.0 0.00 0.00 0.00 95 1020.0
20260902140944 61 254 0.0 0.0 0.00 0.00 0.00 94 1019.9
20260902140439 61 254 0.0 0.0 0.00 0.00 0.00 95 1020.0
20260902135938 61 254 0.0 0.0 0.00 0.00 0.00 95 1019.8
20260902135435 60 254 0.0 0.0 0.00 0.00 0.00 94 1019.6
20260902134933 61 254 0.0 0.0 0.00 0.00 0.00 94 1019.7
20260902134430 61 254 0.0 0.0 0.00 0.00 0.00 94 1019.6
20260902133924 61 254 0.0 0.0 0.00 0.00 0.00 94 1019.5
20260902133419 61 254 0.0 0.0 0.00 0.00 0.00 94 1019.5
20260902132914 60 254 0.0 0.0 0.00 0.00 0.00 94 1019.4
20260902132409 60 254 0.0 0.0 0.00 0.00 0.00 94 1019.4
20260902131904 60 254 0.0 0.0 0.00 0.00 0.00 93 1019.5
20260902131401 60 254 0.0 0.0 0.00 0.00 0.00 93 1019.5
20260902130900 60 254 0.0 0.0 0.00 0.00 0.00 93 1019.4
20260902130356 61 254 0.0 0.0 0.00 0.00 0.00 94 1019.5
20260902125850 60 254 0.0 0.0 0.00 0.00 0.00 93 1019.4
20260902125347 61 254 0.0 0.0 0.00 0.00 0.00 93 1019.4
20260902124843 61 254 0.0 0.0 0.00 0.00 0.00 93 1019.5
20260902124339 61 254 0.0 0.0 0.00 0.00 0.00 93 1019.6
20260902123833 61 254 0.0 0.0 0.00 0.00 0.00 93 1019.6
20260902123330 61 254 0.0 0.0 0.00 0.00 0.00 93 1019.5
20260902122828 61 254 0.0 0.0 0.00 0.00 0.00 92 1019.5
20260902122325 61 254 0.0 0.0 0.00 0.00 0.00 92 1019.6
20260902121824 61 254 0.0 0.0 0.00 0.00 0.00 92 1019.5
20260902121319 61 254 0.0 0.0 0.00 0.00 0.00 92 1019.7
20260902120814 61 254 0.0 0.0 0.00 0.00 0.00 92 1019.8
20260902120311 61 254 0.0 0.0 0.00 0.00 0.00 92 1019.4
20260902115805 62 254 0.0 0.0 0.00 0.00 0.00 92 1019.7
20260902115306 62 254 0.0 0.0 0.00 0.00 0.00 92 1019.5
20260902114758 62 254 0.0 0.0 0.00 0.00 0.00 92 1019.5
20260902114254 62 254 0.0 0.0 0.00 0.00 0.00 92 1019.5
20260902113754 62 254 0.0 0.0 0.00 0.00 0.00 92 1019.6
20260902113249 62 254 0.0 0.0 0.00 0.00 0.00 92 1019.7
20260902112748 62 254 0.0 0.0 0.00 0.00 0.00 92 1019.9
20260902112246 62 254 0.0 0.0 0.00 0.00 0.00 91 1019.6
20260902111740 62 254 0.0 0.0 0.00 0.00 0.00 92 1019.5
20260902111237 62 254 0.0 0.0 0.00 0.00 0.00 91 1019.9
20260902110732 62 254 0.0 0.0 0.00 0.00 0.00 91 1019.8
20260902110228 62 254 0.0 0.0 0.00 0.00 0.00 91 1019.6
20260902105722 63 254 0.0 0.0 0.00 0.00 0.00 91 1019.8
20260902105217 63 254 0.0 0.0 0.00 0.00 0.00 91 1019.7
20260902104713 63 254 0.0 0.0 0.00 0.00 0.00 91 1019.6
20260902104209 63 254 0.0 0.0 0.00 0.00 0.00 91 1019.8
20260902103708 63 254 0.0 0.0 0.00 0.00 0.00 91 1019.6
20260902103203 63 254 0.0 0.0 0.00 0.00 0.00 91 1019.8
20260902102658 63 254 0.0 0.0 0.00 0.00 0.00 90 1019.9
20260902102155 62 254 0.0 0.0 0.00 0.00 0.00 90 1019.7
20260902101650 63 254 0.0 0.0 0.00 0.00 0.00 90 1019.8
20260902101150 62 254 0.0 0.0 0.00 0.00 0.00 89 1019.8
20260902100644 63 254 0.0 0.0 0.00 0.00 0.00 89 1019.9
20260902100139 63 254 0.0 0.0 0.00 0.00 0.00 89 1019.9
20260902095638 63 254 0.0 0.0 0.00 0.00 0.00 89 1019.9
20260902095138 63 254 0.0 0.0 0.00 0.00 0.00 88 1019.8
20260902094633 63 254 0.0 0.0 0.00 0.00 0.00 88 1019.8
20260902094129 63 254 0.0 0.0 0.00 0.00 0.00 88 1019.9
20260902093624 63 254 0.0 0.0 0.00 0.00 0.00 88 1020.1
20260902093118 63 254 0.0 0.0 0.00 0.00 0.00 88 1019.9
20260902092612 64 254 0.0 0.0 0.00 0.00 0.00 87 1020.0
20260902092107 64 254 0.0 0.0 0.00 0.00 0.00 87 1020.0
20260902091602 64 254 0.0 0.0 0.00 0.00 0.00 87 1020.0
20260902091058 64 254 0.0 0.0 0.00 0.00 0.00 87 1019.9
20260902090554 64 254 0.0 0.0 0.00 0.00 0.00 87 1020.0
20260902090053 64 254 0.0 0.0 0.00 0.00 0.00 87 1020.1
20260902085548 64 270 0.0 0.0 0.00 0.00 0.00 86 1020.1
20260902085043 64 270 0.0 0.0 0.00 0.00 0.00 86 1019.9
20260902084539 64 195 0.0 0.0 0.00 0.00 0.00 86 1020.0
20260902084034 64 195 0.0 1.0 0.00 0.00 0.00 86 1020.1
20260902083524 65 279 0.0 0.0 0.00 0.00 0.00 86 1019.9
20260902083019 65 279 0.0 0.0 0.00 0.00 0.00 86 1019.8
20260902082515 64 279 0.0 0.0 0.00 0.00 0.00 85 1019.9
20260902082011 65 279 0.0 0.0 0.00 0.00 0.00 85 1020.1
20260902081508 65 279 0.0 0.0 0.00 0.00 0.00 85 1019.9
20260902081007 66 279 0.0 0.0 0.00 0.00 0.00 85 1020.1
20260902080503 66 279 0.0 0.0 0.00 0.00 0.00 85 1020.1
20260902080002 66 279 0.0 0.0 0.00 0.00 0.00 85 1020.2
20260902075458 65 279 0.0 0.0 0.00 0.00 0.00 84 1019.9
20260902074954 66 279 0.0 0.0 0.00 0.00 0.00 83 1020.0
20260902074449 66 279 0.0 0.0 0.00 0.00 0.00 83 1020.1
20260902073944 66 279 0.0 0.0 0.00 0.00 0.00 82 1020.0
20260902073440 67 279 0.0 0.0 0.00 0.00 0.00 82 1019.9
20260902072936 66 279 0.0 0.0 0.00 0.00 0.00 82 1019.9
20260902072432 66 279 0.0 0.0 0.00 0.00 0.00 82 1019.6
20260902071928 66 279 0.0 0.0 0.00 0.00 0.00 81 1019.5
20260902071427 66 279 0.0 0.0 0.00 0.00 0.00 81 1019.5
20260902070924 66 279 0.0 0.0 0.00 0.00 0.00 81 1019.3
20260902070420 67 279 0.0 0.0 0.00 0.00 0.00 81 1019.5
20260902065918 67 279 0.0 0.0 0.00 0.00 0.00 81 1019.3
20260902065414 67 279 0.0 0.0 0.00 0.00 0.00 81 1019.6
20260902064909 67 279 0.0 0.0 0.00 0.00 0.00 80 1019.5
20260902064404 67 279 0.0 0.0 0.00 0.00 0.00 80 1019.6
20260902063900 67 246 0.0 0.0 0.00 0.00 0.00 81 1019.7
20260902063355 67 246 0.0 0.0 0.00 0.00 0.00 80 1019.7
20260902062854 67 246 0.0 0.0 0.00 0.00 0.00 80 1019.6
20260902062353 68 246 0.0 0.0 0.00 0.00 0.00 79 1019.5
20260902061853 68 246 0.0 0.0 0.00 0.00 0.00 78 1019.3
20260902061349 68 246 0.0 2.0 0.00 0.00 0.00 78 1019.4
20260902060845 68 303 2.0 2.0 0.00 0.00 0.00 78 1019.2
20260902060340 68 262 0.0 0.0 0.00 0.00 0.00 78 1019.4
20260902055836 68 262 0.0 0.0 0.00 0.00 0.00 78 1019.4
20260902055332 68 349 0.0 0.0 0.00 0.00 0.00 78 1019.4
20260902054827 68 349 0.0 0.0 0.00 0.00 0.00 77 1019.3
20260902054323 69 349 0.0 0.0 0.00 0.00 0.00 77 1019.2
20260902053818 69 262 0.0 0.0 0.00 0.00 0.00 76 1019.2
20260902053313 69 246 0.0 1.0 0.00 0.00 0.00 76 1019.5
20260902052812 69 270 0.0 1.0 0.00 0.00 0.00 77 1019.4
20260902052307 69 270 0.0 0.0 0.00 0.00 0.00 77 1019.5
20260902051803 69 270 0.0 0.0 0.00 0.00 0.00 76 1019.1
20260902051301 69 286 0.0 0.0 0.00 0.00 0.00 76 1019.4
20260902050757 69 261 0.0 1.0 0.00 0.00 0.00 75 1019.4
20260902050251 69 234 0.0 1.0 0.00 0.00 0.00 75 1019.3
20260902045751 69 0 0.0 3.0 0.00 0.00 0.00 75 1019.3
20260902045247 69 270 0.0 3.0 0.00 0.00 0.00 76 1019.4
20260902044743 69 270 0.0 2.0 0.00 0.00 0.00 76 1019.1
20260902044238 70 262 0.0 1.0 0.00 0.00 0.00 76 1019.1
20260902043733 70 299 0.0 3.0 0.00 0.00 0.00 76 1019.1
20260902043229 70 261 0.0 2.0 0.00 0.00 0.00 76 1019.0
20260902042728 69 248 0.0 3.0 0.00 0.00 0.00 76 1018.8
20260902042223 70 291 1.0 4.0 0.00 0.00 0.00 76 1018.9
20260902041718 70 270 0.0 1.0 0.00 0.00 0.00 76 1019.0
20260902041213 70 261 0.0 3.0 0.00 0.00 0.00 76 1018.7
20260902040712 70 278 0.0 1.0 0.00 0.00 0.00 76 1018.7
20260902040208 70 327 3.0 3.0 0.00 0.00 0.00 77 1018.5
20260902035706 70 352 0.0 3.0 0.00 0.00 0.00 77 1018.4
20260902035202 70 297 3.0 5.0 0.00 0.00 0.00 77 1018.3
20260902034701 70 257 1.0 3.0 0.00 0.00 0.00 78 1018.3
20260902034201 70 249 0.0 4.0 0.00 0.00 0.00 78 1018.4
20260902033659 70 347 3.0 3.0 0.00 0.00 0.00 78 1018.3
20260902033155 70 339 0.0 4.0 0.00 0.00 0.00 79 1018.2
20260902032653 71 222 3.0 4.0 0.00 0.00 0.00 78 1018.1
20260902032148 71 354 1.0 3.0 0.00 0.00 0.00 77 1017.9
20260902031642 71 346 3.0 5.0 0.00 0.00 0.00 76 1018.0
20260902031138 71 303 3.0 7.0 0.00 0.00 0.00 75 1017.9
20260902030634 72 277 0.0 5.0 0.00 0.00 0.00 74 1017.7
20260902030133 72 253 3.0 3.0 0.00 0.00 0.00 73 1017.9
20260902025633 72 334 0.0 3.0 0.00 0.00 0.00 73 1017.8
20260902025128 73 228 2.0 3.0 0.00 0.00 0.00 72 1017.8
20260902024623 73 270 0.0 2.0 0.00 0.00 0.00 71 1017.8
20260902024118 73 243 3.0 3.0 0.00 0.00 0.00 71 1017.6
20260902023614 73 255 2.0 3.0 0.00 0.00 0.00 71 1017.4
20260902023109 73 279 0.0 2.0 0.00 0.00 0.00 70 1017.5
20260902022608 73 237 2.0 3.0 0.00 0.00 0.00 70 1017.6
20260902022104 74 287 0.0 3.0 0.00 0.00 0.00 68 1017.3
20260902021559 74 270 3.0 3.0 0.00 0.00 0.00 67 1017.5
20260902021054 74 285 1.0 2.0 0.00 0.00 0.00 67 1017.4
20260902020550 75 262 0.0 4.0 0.00 0.00 0.00 66 1017.5
20260902020046 75 229 2.0 3.0 0.00 0.00 0.00 66 1017.2
20260902015541 75 258 2.0 5.0 0.00 0.00 0.00 66 1017.4
20260902015037 75 270 0.0 2.0 0.00 0.00 0.00 65 1017.5
20260902014532 76 311 0.0 3.0 0.00 0.00 0.00 64 1017.5
20260902014028 77 277 0.0 4.0 0.00 0.00 0.00 62 1017.5
20260902013522 77 297 0.0 3.0 0.00 0.00 0.00 61 1017.3
20260902013018 78 276 0.0 6.0 0.00 0.00 0.00 60 1017.5
20260902012513 78 331 1.0 3.0 0.00 0.00 0.00 59 1017.5
20260902012008 78 300 2.0 8.0 0.00 0.00 0.00 59 1017.3
20260902011504 79 233 2.0 5.0 0.00 0.00 0.00 58 1017.5
20260902011003 79 258 0.0 3.0 0.00 0.00 0.00 57 1017.4
20260902010458 79 304 2.0 5.0 0.00 0.00 0.00 57 1017.8
20260902005957 79 221 0.0 4.0 0.00 0.00 0.00 57 1017.5
20260902005456 80 295 2.0 5.0 0.00 0.00 0.00 55 1017.5
20260902004953 81 35 1.0 5.0 0.00 0.00 0.00 53 1017.5
20260902004452 80 279 3.0 5.0 0.00 0.00 0.00 54 1017.6
20260902003947 80 274 3.0 3.0 0.00 0.00 0.00 55 1017.5
20260902003442 80 244 3.0 6.0 0.00 0.00 0.00 56 1017.6
20260902002938 80 243 0.0 7.0 0.00 0.00 0.00 56 1017.4
20260902002433 81 279 1.0 4.0 0.00 0.00 0.00 55 1017.4
20260902001932 81 248 2.0 4.0 0.00 0.00 0.00 56 1017.5
20260902001427 80 292 0.0 4.0 0.00 0.00 0.00 56 1017.6
20260902000922 81 225 2.0 6.0 0.00 0.00 0.00 56 1017.7
20260902000417 80 330 6.0 6.0 0.00 0.00 0.00 56 1017.8
20260901235912 80 245 2.0 4.0 0.00 0.00 0.00 55 1017.6
20260901235407 81 246 4.0 5.0 0.00 0.00 0.00 56 1017.5
20260901234902 81 277 0.0 5.0 0.00 0.00 0.00 56 1017.6
20260901234356 81 259 3.0 7.0 0.00 0.00 0.00 56 1017.6
20260901233851 82 251 3.0 4.0 0.00 0.00 0.00 55 1017.5
20260901233346 81 262 2.0 6.0 0.00 0.00 0.00 55 1017.6
20260901232842 82 243 2.0 5.0 0.00 0.00 0.00 54 1017.7
20260901232337 81 277 1.0 4.0 0.00 0.00 0.00 53 1017.5
20260901231833 82 232 0.0 3.0 0.00 0.00 0.00 53 1017.5
20260901231329 82 246 5.0 7.0 0.00 0.00 0.00 53 1017.5
20260901230826 83 256 0.0 6.0 0.00 0.00 0.00 53 1017.6
20260901230325 84 222 3.0 4.0 0.00 0.00 0.00 50 1017.4
20260901225820 83 233 3.0 3.0 0.00 0.00 0.00 49 1017.8
20260901225319 84 90 0.0 3.0 0.00 0.00 0.00 48 1017.6
20260901224815 84 252 0.0 4.0 0.00 0.00 0.00 43 1017.4
20260901224311 84 198 0.0 4.0 0.00 0.00 0.00 44 1017.9
20260901223807 83 261 2.0 4.0 0.00 0.00 0.00 42 1017.5
20260901223302 84 203 0.0 4.0 0.00 0.00 0.00 42 1017.7
20260901222758 84 236 3.0 3.0 0.00 0.00 0.00 41 1017.6
20260901222254 84 352 0.0 4.0 0.00 0.00 0.00 43 1017.6
20260901221750 84 7 1.0 3.0 0.00 0.00 0.00 42 1018.0
20260901221245 83 285 1.0 3.0 0.00 0.00 0.00 42 1017.9
20260901220744 84 180 1.0 3.0 0.00 0.00 0.00 45 1018.0
20260901220238 83 229 2.0 4.0 0.00 0.00 0.00 45 1018.2
20260901215737 84 220 0.0 5.0 0.00 0.00 0.00 46 1018.2
20260901215232 84 4 0.0 4.0 0.00 0.00 0.00 46 1018.1
20260901214730 83 139 0.0 3.0 0.00 0.00 0.00 45 1018.2
20260901214223 84 201 2.0 5.0 0.00 0.00 0.00 45 1018.1
20260901213718 84 266 0.0 4.0 0.00 0.00 0.00 44 1018.4
20260901213213 84 187 0.0 3.0 0.00 0.00 0.00 45 1018.5
20260901212712 83 184 2.0 4.0 0.00 0.00 0.00 43 1018.4
20260901212209 83 218 3.0 4.0 0.00 0.00 0.00 44 1018.4
20260901211709 82 196 2.0 4.0 0.00 0.00 0.00 45 1018.2
20260901211205 82 195 0.0 4.0 0.00 0.00 0.00 45 1018.3
20260901210700 82 127 0.0 3.0 0.00 0.00 0.00 48 1018.3
20260901210156 82 187 0.0 5.0 0.00 0.00 0.00 47 1018.5
20260901205651 81 106 2.0 3.0 0.00 0.00 0.00 49 1018.6
20260901205146 81 270 2.0 4.0 0.00 0.00 0.00 50 1018.5
20260901204642 82 197 0.0 5.0 0.00 0.00 0.00 50 1018.6
20260901204137 83 209 0.0 3.0 0.00 0.00 0.00 51 1018.6
20260901203637 83 206 3.0 6.0 0.00 0.00 0.00 50 1018.7
20260901203132 82 218 0.0 5.0 0.00 0.00 0.00 53 1018.6
20260901202631 81 154 0.0 3.0 0.00 0.00 0.00 53 1018.6
20260901202127 82 77 1.0 4.0 0.00 0.00 0.00 53 1018.9
20260901201623 80 21 0.0 4.0 0.00 0.00 0.00 53 1018.7
20260901201122 83 270 0.0 7.0 0.00 0.00 0.00 51 1019.0
20260901200622 80 263 1.0 5.0 0.00 0.00 0.00 51 1019.1
20260901200117 80 202 0.0 7.0 0.00 0.00 0.00 54 1019.1
20260901195614 80 212 2.0 4.0 0.00 0.00 0.00 54 1019.1
20260901195109 79 90 0.0 2.0 0.00 0.00 0.00 56 1019.1
20260901194604 80 297 0.0 5.0 0.00 0.00 0.00 56 1018.9
20260901194059 79 194 0.0 3.0 0.00 0.00 0.00 58 1019.2
20260901193554 78 252 2.0 4.0 0.00 0.00 0.00 60 1019.1
20260901193049 77 157 0.0 5.0 0.00 0.00 0.00 60 1019.3
20260901192544 77 4 0.0 3.0 0.00 0.00 0.00 60 1019.4
20260901192040 79 304 0.0 4.0 0.00 0.00 0.00 60 1019.2
20260901191536 80 252 3.0 4.0 0.00 0.00 0.00 57 1019.4
20260901191032 78 229 2.0 2.0 0.00 0.00 0.00 60 1019.4
20260901190526 77 0 0.0 2.0 0.00 0.00 0.00 59 1019.6
20260901190026 78 225 0.0 5.0 0.00 0.00 0.00 60 1019.7
20260901185519 79 240 0.0 3.0 0.00 0.00 0.00 58 1019.7
20260901185018 77 341 0.0 2.0 0.00 0.00 0.00 61 1019.6
20260901184514 76 200 0.0 3.0 0.00 0.00 0.00 62 1019.5
20260901184009 76 259 2.0 2.0 0.00 0.00 0.00 61 1019.5
20260901183503 77 353 1.0 3.0 0.00 0.00 0.00 63 1019.6
20260901182959 75 283 0.0 4.0 0.00 0.00 0.00 63 1019.8
20260901182454 76 237 0.0 3.0 0.00 0.00 0.00 63 1019.7
20260901181948 77 357 0.0 3.0 0.00 0.00 0.00 60 1019.8
20260901181443 76 165 0.0 2.0 0.00 0.00 0.00 59 1019.8
20260901180942 75 99 0.0 1.0 0.00 0.00 0.00 64 1019.8
20260901180442 74 300 2.0 2.0 0.00 0.00 0.00 65 1019.8
20260901175940 74 23 0.0 3.0 0.00 0.00 0.00 66 1019.6
20260901175436 74 7 0.0 2.0 0.00 0.00 0.00 65 1019.9
20260901174930 75 206 1.0 3.0 0.00 0.00 0.00 64 1020.0
20260901174426 75 0 0.0 1.0 0.00 0.00 0.00 67 1019.9
20260901173921 73 111 0.0 1.0 0.00 0.00 0.00 67 1020.0
20260901173416 72 286 0.0 2.0 0.00 0.00 0.00 70 1019.8
20260901172912 72 195 0.0 1.0 0.00 0.00 0.00 68 1019.6
20260901172407 72 283 2.0 4.0 0.00 0.00 0.00 69 1019.6